sat.trackr.live / text

‹ back to catalog

QIANFAN-19

NORAD 61552 · 2024-185A

PAYLOAD ACTIVE UNKNOWN

§ Identity

Operator
Country
PRC
Launch date
2024-10-15
Launch site
TAISC
Launch vehicle
Mass (kg)
RCS (m²)

External: N2YO · Heavens-Above · Gunter

§ Orbital elements

Epoch: 2026-05-25T01:56:27.343392Z

Period
101.81 min
Inclination
88.9851°
Eccentricity
0.0008394
Mean motion
14.14457245 rev/d
Perigee alt
838.1 km
Apogee alt
850.2 km
Semi-major
7,222.3 km
B*
1.5642e-4
RAAN
59.2111°
Arg perigee
126.0975°
Mean anomaly
234.0990°
Rev number
9,275

§ Raw data

QIANFAN-191 61552U 24185A   26145.08087203  .00000314  00000+0  15642-3 0  99932 61552  88.9851  59.2111 0008394 126.0975 234.0990 14.14457245 92750

JSON: /api/v1/satellites/61552 · /tle

For live sub-satellite position, see the globe view (requires WebGL).

§ Visibility from observer

Set your observer location to see the next 7 days of passes ≥ 10°. The values pass through the URL so the page stays shareable.

No JS? Fill the form by hand. The geolocation button needs JavaScript.